Weather History for CWGD - November, 2012

Change the Weather History Date:

Monday, November 26, 2012

  Actual Average Record
Temperature  
Mean Temperature 32 °F -  
Max Temperature 34 °F - - ()
Min Temperature 31 °F - - ()
Degree Days  
Heating Degree Days 32    
Moisture  
Dew Point 23 °F    
Average Humidity 64    
Maximum Humidity 76    
Minimum Humidity 45    
Precipitation  
Precipitation 0.00 in - - ()
Sea Level Pressure  
Sea Level Pressure 30.09 in    
Wind  
Wind Speed 15 mph ()    
Max Wind Speed 21 mph    
Max Gust Speed 30 mph    
T = Trace of Precipitation, MM = Missing Value Source: Averaged Metar Reports

Daily Weather History Graph

Daily Weather History Graph

Search for Another Location

Airport or City:

Trip Planner

Search our weather history database for the weather conditions in past years. The results will help you decide how hot, cold, wet, or windy it might be!

Date:

Astronomy

Nov. 26, 2012 Rise Set
Actual Time 7:35 AM EST 4:52 PM EST
Civil Twilight 7:03 AM EST 5:24 PM EST
Nautical Twilight 6:28 AM EST 6:00 PM EST
Astronomical Twilight 5:53 AM EST 6:34 PM EST
Moon 3:45 PM EST (11/26) 5:42 AM EST (11/26)
Length of Visible Light 10h 21m
Length of Day
9h 17m
Waxing Gibbous, 97% of the Moon is Illuminated
Nov 26
Waxing Gibbous
Nov 28
Full
Dec 6
Last Quarter
Dec 13
New
Dec 20
First Quarter

Hourly Weather History & Observations

Time (EST) Temp. Windchill Dew Point Humidity Pressure Visibility Wind Dir Wind Speed Gust Speed Precip Events Conditions
12:00 AM 35.4 °F 24.3 °F 27.3 °F 72% 29.91 in - West 20.7 mph 29.9 mph N/A   Unknown
1:00 AM 35 °F - 27 °F 61% 29.92 in - West 18.4 mph - -  
1:00 AM 35.2 °F 24.7 °F 26.6 °F 71% 29.92 in - West 18.4 mph 27.6 mph N/A   Unknown
2:00 AM 35.4 °F 25.3 °F 26.4 °F 70% 29.94 in - WNW 17.3 mph 27.6 mph N/A   Unknown
3:00 AM 35.2 °F 24.1 °F 27.1 °F 72% 29.96 in - West 20.7 mph 27.6 mph N/A   Unknown
4:00 AM 35.1 °F 24.1 °F 25.7 °F 69% 29.98 in - West 19.6 mph 26.5 mph N/A   Unknown
5:00 AM 34.9 °F 25.7 °F 23.4 °F 63% 29.99 in - West 13.8 mph 19.6 mph N/A   Unknown
6:00 AM 34.5 °F 24.5 °F 24.6 °F 67% 30.01 in - West 16.1 mph 24.2 mph N/A   Unknown
7:00 AM 34 °F - 25 °F 60% 30.04 in - West 17.3 mph - -  
7:00 AM 34.2 °F 23.6 °F 25.2 °F 70% 30.04 in - West 17.3 mph 25.3 mph N/A   Unknown
8:00 AM 34.0 °F 24.2 °F 22.8 °F 64% 30.06 in - West 15.0 mph 23.0 mph N/A   Unknown
9:00 AM 33.6 °F 23.7 °F 23.0 °F 65% 30.08 in - West 15.0 mph 21.9 mph N/A   Unknown
10:00 AM 33.1 °F 22.6 °F 22.1 °F 64% 30.11 in - West 16.1 mph 21.9 mph N/A   Unknown
11:00 AM 32.9 °F 22.4 °F 21.9 °F 64% 30.14 in - West 16.1 mph 21.9 mph N/A   Unknown
12:00 PM 31.3 °F 20.7 °F 21.6 °F 67% 30.13 in - West 15.0 mph 21.9 mph N/A   Unknown
1:00 PM 33 °F - 20 °F 45% 30.14 in - West 15.0 mph - -  
1:00 PM 31.5 °F 20.9 °F 19.8 °F 62% 30.14 in - West 15.0 mph 20.7 mph N/A   Unknown
2:00 PM 32.9 °F 23.2 °F 19.9 °F 59% 30.14 in - West 13.8 mph - N/A   Unknown
3:00 PM 31.5 °F 21.4 °F 19.9 °F 62% 30.15 in - West 13.8 mph - N/A   Unknown
4:00 PM 31.5 °F 21.8 °F 19.9 °F 62% 30.17 in - West 12.7 mph - N/A   Unknown
5:00 PM 31.3 °F 22.1 °F 18.7 °F 60% 30.18 in - West 11.5 mph - N/A   Unknown
6:00 PM 32.9 °F 24.7 °F 21.0 °F 62% 30.18 in - West 10.4 mph - N/A   Unknown
7:00 PM 33 °F - 20 °F 46% 30.20 in - West 12.7 mph - -  
7:00 PM 32.9 °F 23.7 °F 19.9 °F 59% 30.20 in - West 12.7 mph - N/A   Unknown
8:00 PM 33.3 °F 24.6 °F 20.5 °F 59% 30.21 in - West 11.5 mph - N/A   Unknown
9:00 PM 32.9 °F 23.7 °F 21.9 °F 64% 30.21 in - West 12.7 mph - N/A   Unknown
10:00 PM 33.3 °F 23.7 °F 23.0 °F 66% 30.22 in - West 13.8 mph 19.6 mph N/A   Unknown
11:00 PM 31.3 °F 21.1 °F 24.4 °F 76% 30.22 in - West 13.8 mph 20.7 mph N/A   Unknown